RYR91EQ EGSS-LPMA

Flight info

Callsign RYR91EQ
Flight time N/A
Altitude 33000
Route NUGBO M183 SILVA Q41 SAM M195 MARUK/N0449F370 M195 LORKU DCT EBOMO DCT COQUE DCT KORUL DCT DEMOS DCT IBIDO DCT MARUM DCT PECKY DCT LIDRO
Aircraft B38M/M-SADE3FGILRWY/SB1

Departure

Time 2026-05-06 15:31
Airport London Stansted Airport (EGSS)

Arrival

Time N/A
Airport Cristiano Ronaldo International Airport (LPMA)
Time Latitude Longitude Altitude Speed Heading
2026-05-06 15:00 51.89127 0.25565 351 ft 0 kts 43°
2026-05-06 15:20 51.89125 0.25562 351 ft 3 kts 43°
2026-05-06 15:20 51.89106 0.25533 361 ft 3 kts 43°
2026-05-06 15:20 51.89089 0.25512 358 ft 4 kts 18°
2026-05-06 15:21 51.89069 0.25517 356 ft 4 kts 316°
2026-05-06 15:21 51.89052 0.25546 358 ft 2 kts 313°
2026-05-06 15:21 51.89050 0.25549 359 ft 0 kts 313°
2026-05-06 15:24 51.89054 0.25542 351 ft 2 kts 313°
2026-05-06 15:24 51.89076 0.25504 351 ft 8 kts 313°
2026-05-06 15:24 51.89132 0.25406 354 ft 16 kts 313°
2026-05-06 15:25 51.89153 0.25237 356 ft 17 kts 221°
2026-05-06 15:25 51.89062 0.25106 351 ft 18 kts 223°
2026-05-06 15:25 51.88965 0.24960 353 ft 20 kts 223°
2026-05-06 15:25 51.88859 0.24802 356 ft 21 kts 223°
2026-05-06 15:26 51.88750 0.24639 351 ft 22 kts 223°
2026-05-06 15:26 51.88632 0.24461 358 ft 23 kts 223°
2026-05-06 15:26 51.88510 0.24277 355 ft 25 kts 223°
2026-05-06 15:26 51.88381 0.24083 351 ft 26 kts 223°
2026-05-06 15:27 51.88249 0.23878 354 ft 27 kts 225°
2026-05-06 15:27 51.88158 0.23731 357 ft 10 kts 247°
2026-05-06 15:27 51.88177 0.23627 354 ft 11 kts 312°
2026-05-06 15:27 51.88196 0.23518 360 ft 11 kts 243°
2026-05-06 15:28 51.88141 0.23427 355 ft 12 kts 224°
2026-05-06 15:28 51.88076 0.23327 354 ft 14 kts 222°
2026-05-06 15:28 51.88003 0.23222 353 ft 15 kts 223°
2026-05-06 15:28 51.87918 0.23094 357 ft 19 kts 223°
2026-05-06 15:29 51.87807 0.22926 356 ft 23 kts 223°
2026-05-06 15:29 51.87683 0.22741 353 ft 24 kts 223°
2026-05-06 15:29 51.87572 0.22575 350 ft 21 kts 222°
2026-05-06 15:29 51.87532 0.22396 348 ft 15 kts 306°
2026-05-06 15:30 51.87604 0.22288 334 ft 13 kts 327°
2026-05-06 15:30 51.87690 0.22269 340 ft 13 kts 26°
2026-05-06 15:30 51.87758 0.22364 347 ft 14 kts 43°
2026-05-06 15:30 51.87881 0.22551 344 ft 47 kts 43°
2026-05-06 15:31 51.88311 0.23196 340 ft 119 kts 43°
2026-05-06 15:31 51.89066 0.24320 400 ft 170 kts 41°
2026-05-06 15:31 51.89958 0.25657 1184 ft 169 kts 41°
2026-05-06 15:32 51.91716 0.28327 2622 ft 187 kts 39°
2026-05-06 15:32 51.92892 0.29340 3133 ft 200 kts 11°
2026-05-06 15:32 51.94337 0.29540 3614 ft 219 kts 352°
2026-05-06 15:32 51.95795 0.28540 4087 ft 242 kts 322°
2026-05-06 15:33 51.96803 0.26247 4589 ft 262 kts 289°
2026-05-06 15:33 51.97146 0.23313 4804 ft 267 kts 281°
2026-05-06 15:33 51.97452 0.20330 4974 ft 270 kts 281°
2026-05-06 15:33 51.97770 0.17329 5820 ft 269 kts 281°
2026-05-06 15:34 51.98096 0.14304 6589 ft 277 kts 281°
2026-05-06 15:34 51.98433 0.11200 7403 ft 278 kts 281°
2026-05-06 15:34 51.98767 0.08125 8334 ft 278 kts 281°
2026-05-06 15:34 51.98783 0.05003 9214 ft 280 kts 261°
2026-05-06 15:35 51.98382 0.01907 10065 ft 281 kts 262°
2026-05-06 15:35 51.97996 -0.01273 10535 ft 296 kts 261°
2026-05-06 15:35 51.97575 -0.04642 10894 ft 312 kts 260°
2026-05-06 15:35 51.97123 -0.08171 11357 ft 325 kts 260°
2026-05-06 15:36 51.96658 -0.11770 12119 ft 326 kts 260°
2026-05-06 15:36 51.96188 -0.15387 12845 ft 329 kts 260°
2026-05-06 15:36 51.95715 -0.19022 13639 ft 331 kts 259°
2026-05-06 15:36 51.95396 -0.21458 14034 ft 335 kts 260°
2026-05-06 15:37 51.94912 -0.25157 14697 ft 337 kts 259°
2026-05-06 15:37 51.94419 -0.28907 15310 ft 341 kts 259°
2026-05-06 15:37 51.93921 -0.32685 15828 ft 346 kts 259°
2026-05-06 15:37 51.93420 -0.36474 15970 ft 343 kts 259°
2026-05-06 15:38 51.92918 -0.40265 15995 ft 344 kts 259°
2026-05-06 15:38 51.92417 -0.44048 15997 ft 344 kts 259°
2026-05-06 15:38 51.91910 -0.47852 16261 ft 346 kts 259°
2026-05-06 15:38 51.91402 -0.51663 16960 ft 347 kts 259°
2026-05-06 15:39 51.90889 -0.55491 17609 ft 349 kts 259°
2026-05-06 15:39 51.90371 -0.59354 18151 ft 354 kts 259°
2026-05-06 15:39 51.89846 -0.63258 18685 ft 357 kts 258°
2026-05-06 15:39 51.89315 -0.67194 19213 ft 358 kts 258°
2026-05-06 15:40 51.88781 -0.71141 19737 ft 361 kts 258°
2026-05-06 15:40 51.88241 -0.75117 20259 ft 362 kts 258°
2026-05-06 15:40 51.87698 -0.79116 20739 ft 365 kts 258°
2026-05-06 15:40 51.87148 -0.83149 21201 ft 369 kts 258°
2026-05-06 15:41 51.86594 -0.87204 21718 ft 370 kts 258°
2026-05-06 15:41 51.86034 -0.91284 22209 ft 373 kts 257°
2026-05-06 15:41 51.85104 -0.95197 22673 ft 376 kts 239°
2026-05-06 15:41 51.83427 -0.98454 23153 ft 382 kts 222°
2026-05-06 15:42 51.81161 -1.00745 23573 ft 389 kts 204°
2026-05-06 15:42 51.78544 -1.01921 23993 ft 393 kts 193°
2026-05-06 15:42 51.75842 -1.02723 24394 ft 396 kts 192°
2026-05-06 15:42 51.73121 -1.03485 24786 ft 399 kts 192°
2026-05-06 15:43 51.70414 -1.04213 25182 ft 401 kts 192°
2026-05-06 15:43 51.67652 -1.04935 25575 ft 403 kts 191°
2026-05-06 15:43 51.64876 -1.05651 25968 ft 405 kts 191°
2026-05-06 15:43 51.62085 -1.06381 26356 ft 407 kts 193°
2026-05-06 15:44 51.59344 -1.07536 26723 ft 408 kts 197°
2026-05-06 15:44 51.56595 -1.08727 27081 ft 411 kts 197°
2026-05-06 15:44 51.53819 -1.09898 27425 ft 414 kts 197°
2026-05-06 15:44 51.51024 -1.11057 27771 ft 416 kts 196°
2026-05-06 15:45 51.48216 -1.12224 28140 ft 418 kts 197°
2026-05-06 15:45 51.45394 -1.13437 28487 ft 420 kts 197°
2026-05-06 15:45 51.42560 -1.14649 28822 ft 423 kts 197°
2026-05-06 15:45 51.39711 -1.15865 29155 ft 425 kts 197°
2026-05-06 15:46 51.36848 -1.17084 29492 ft 427 kts 197°
2026-05-06 15:46 51.33974 -1.18306 29801 ft 429 kts 197°
2026-05-06 15:46 51.31077 -1.19536 30081 ft 432 kts 196°
2026-05-06 15:46 51.28161 -1.20774 30312 ft 435 kts 197°
2026-05-06 15:47 51.25236 -1.22013 30595 ft 436 kts 196°
2026-05-06 15:47 51.22299 -1.23254 30850 ft 438 kts 196°
2026-05-06 15:47 51.19346 -1.24502 31121 ft 439 kts 197°
2026-05-06 15:47 51.16385 -1.25751 31397 ft 441 kts 197°
2026-05-06 15:48 51.13414 -1.27004 31634 ft 443 kts 197°
2026-05-06 15:48 51.10426 -1.28261 31889 ft 445 kts 197°
2026-05-06 15:48 51.07471 -1.29503 32153 ft 446 kts 197°
2026-05-06 15:48 51.04465 -1.30764 32424 ft 447 kts 196°
2026-05-06 15:49 51.01453 -1.32027 32766 ft 447 kts 197°
2026-05-06 15:49 50.98447 -1.33285 33001 ft 448 kts 197°
2026-05-06 15:49 50.95506 -1.34834 32940 ft 442 kts 209°
2026-05-06 15:49 50.92920 -1.37381 33026 ft 438 kts 214°
2026-05-06 15:50 50.87763 -1.42629 32991 ft 439 kts 214°
2026-05-06 15:50 50.82636 -1.47929 32988 ft 441 kts 215°
2026-05-06 15:51 50.77503 -1.53246 32981 ft 441 kts 215°
2026-05-06 15:51 50.72373 -1.58549 32986 ft 441 kts 215°
2026-05-06 15:52 50.67238 -1.63843 32988 ft 441 kts 215°
2026-05-06 15:52 50.62097 -1.69128 32972 ft 442 kts 214°
2026-05-06 15:53 50.56934 -1.74422 32983 ft 443 kts 214°
2026-05-06 15:53 50.51767 -1.79707 32983 ft 443 kts 214°
2026-05-06 15:54 50.46600 -1.84977 32985 ft 443 kts 214°
2026-05-06 15:54 50.41435 -1.90231 32984 ft 442 kts 214°
2026-05-06 15:55 50.36256 -1.95485 33189 ft 444 kts 214°
2026-05-06 15:55 50.33664 -1.98110 33518 ft 444 kts 214°
2026-05-06 15:55 50.31073 -2.00731 33846 ft 443 kts 214°
2026-05-06 15:56 50.28486 -2.03343 34146 ft 442 kts 214°
2026-05-06 15:56 50.25899 -2.05953 34397 ft 442 kts 214°
2026-05-06 15:56 50.23295 -2.08510 34636 ft 442 kts 213°
2026-05-06 15:56 50.20683 -2.11055 34878 ft 442 kts 213°
2026-05-06 15:57 50.18076 -2.13597 35112 ft 442 kts 214°
2026-05-06 15:57 50.15463 -2.16144 35322 ft 443 kts 213°
2026-05-06 15:57 50.12849 -2.18689 35515 ft 444 kts 213°
2026-05-06 15:57 50.10230 -2.21236 35743 ft 444 kts 213°
2026-05-06 15:58 50.07611 -2.23779 35981 ft 443 kts 213°
2026-05-06 15:58 50.04992 -2.26320 36202 ft 443 kts 213°
2026-05-06 15:58 50.02377 -2.28853 36416 ft 443 kts 213°
2026-05-06 15:58 49.99762 -2.31383 36633 ft 443 kts 213°
2026-05-06 15:59 49.97147 -2.33909 36840 ft 443 kts 213°
2026-05-06 15:59 49.94529 -2.36436 36984 ft 443 kts 213°
2026-05-06 15:59 49.89323 -2.41452 36991 ft 442 kts 213°
2026-05-06 16:00 49.84093 -2.46478 36993 ft 442 kts 213°
2026-05-06 16:00 49.78859 -2.51495 36994 ft 442 kts 213°
2026-05-06 16:01 49.73625 -2.56498 36993 ft 442 kts 213°
2026-05-06 16:01 49.68385 -2.61495 36989 ft 443 kts 213°
2026-05-06 16:02 49.63137 -2.66488 36992 ft 443 kts 213°
2026-05-06 16:02 49.57882 -2.71473 36991 ft 443 kts 213°
2026-05-06 16:03 49.52632 -2.76441 36993 ft 443 kts 213°
2026-05-06 16:03 49.47381 -2.81397 36983 ft 443 kts 213°
2026-05-06 16:04 49.42123 -2.86348 36985 ft 443 kts 213°
2026-05-06 16:04 49.36863 -2.91287 36985 ft 443 kts 213°
2026-05-06 16:05 49.31603 -2.96214 36985 ft 443 kts 213°
2026-05-06 16:05 49.26340 -3.01132 36976 ft 443 kts 213°
2026-05-06 16:06 49.21069 -3.06045 36981 ft 444 kts 213°
2026-05-06 16:06 49.15794 -3.10947 36979 ft 444 kts 213°
2026-05-06 16:07 49.10524 -3.15835 36979 ft 443 kts 213°
2026-05-06 16:07 49.05245 -3.20718 36981 ft 443 kts 213°
2026-05-06 16:08 49.01138 -3.24509 36977 ft 444 kts 213°
2026-05-06 16:08 48.95855 -3.29373 36986 ft 444 kts 213°
2026-05-06 16:09 48.90572 -3.34226 36989 ft 444 kts 212°
2026-05-06 16:09 48.85283 -3.39071 36992 ft 444 kts 212°
2026-05-06 16:10 48.79995 -3.43905 36994 ft 444 kts 212°
2026-05-06 16:10 48.74737 -3.48698 36991 ft 444 kts 212°
2026-05-06 16:11 48.69445 -3.53511 36992 ft 444 kts 212°
2026-05-06 16:11 48.64149 -3.58315 36992 ft 444 kts 212°
2026-05-06 16:12 48.58851 -3.63110 36981 ft 444 kts 212°
2026-05-06 16:12 48.53549 -3.67909 36979 ft 447 kts 212°
2026-05-06 16:13 48.48234 -3.72762 36966 ft 444 kts 212°
2026-05-06 16:13 48.42866 -3.77512 36929 ft 444 kts 212°
2026-05-06 16:14 48.37593 -3.82229 36985 ft 445 kts 212°
2026-05-06 16:14 48.32243 -3.87011 36975 ft 444 kts 212°
2026-05-06 16:15 48.26928 -3.91750 36977 ft 444 kts 212°
2026-05-06 16:15 48.21650 -3.96444 36974 ft 444 kts 212°
2026-05-06 16:16 48.16331 -4.01164 36991 ft 444 kts 212°
2026-05-06 16:16 48.11013 -4.05872 36994 ft 444 kts 212°
2026-05-06 16:17 48.05687 -4.10574 36989 ft 444 kts 212°
2026-05-06 16:17 48.00368 -4.15261 36991 ft 444 kts 212°
2026-05-06 16:18 47.95040 -4.19946 36998 ft 444 kts 212°
2026-05-06 16:18 47.89712 -4.24619 37006 ft 444 kts 212°
2026-05-06 16:19 47.84386 -4.29279 36980 ft 444 kts 212°
2026-05-06 16:19 47.79131 -4.34093 36967 ft 444 kts 214°
2026-05-06 16:20 47.73892 -4.38950 36970 ft 444 kts 213°
2026-05-06 16:20 47.68651 -4.43790 36963 ft 444 kts 213°
2026-05-06 16:21 47.63409 -4.48620 36969 ft 444 kts 213°
2026-05-06 16:21 47.58162 -4.53444 36977 ft 444 kts 214°
2026-05-06 16:22 47.52912 -4.58258 36979 ft 444 kts 214°
2026-05-06 16:22 47.47660 -4.63063 36978 ft 444 kts 214°
2026-05-06 16:23 47.42409 -4.67855 36986 ft 444 kts 213°
2026-05-06 16:23 47.37150 -4.72645 36986 ft 444 kts 213°
2026-05-06 16:24 47.32783 -4.76611 36986 ft 444 kts 213°
2026-05-06 16:24 47.27522 -4.81380 36994 ft 444 kts 213°
2026-05-06 16:25 47.24001 -4.84565 36992 ft 444 kts 213°